Starlink 31985

operational
NORAD ID: 60036 Int'l Des: 2024-111 Owner: SPXS Country: US Constellation: starlink
LEOCIRCULAR

Über Starlink 31985

Beschreibung wird geladen...

Live-Position

3D-Globus wird geladen...

Nächste Überflüge

Höhenverlauf

Altitude vs Time

uPlot chart will show altitude changes over time

Zweizeiliger Elementsatz

1 60036U 24111W 25306.20577056 .00001018 00000-0 46516-4 0 9998
2 60036 53.1601 307.8779 0001388 90.2672 269.8488 15.30188540 79455
Epoch: 2. Nov. 2025 • Age: 14 hours

Aktueller Status

Höhe 486.2 km
Geschwindigkeit 7.62 km/s
Subsatellitenpunkt -32.90°S, 48.85°W
Startdatum 8. Juni 2024
Alter 1.4 years
Typ internet

Technische Details

Klassifizierung Payload
Masse 730.00 kg
Trockenmasse 700.00 kg
Gesamtmasse 730.00 kg
Länge 0.30 m
Durchmesser 4.10 m
Spannweite 29.00 m
Form Box + pan
Hersteller SPXS
Bus-Typ Starlink V2M
Phasenstatus In Orbit
Besitzer/Staat SPXS/US

Große Konstellationen

Loading constellations...